NIMBUS 2 DEB, 37891

Orbit data source: Space-Track

NIMBUS 2 DEB, 37891 is space debris in SSO originally from a launch on Sun, 15 May 1966 UTC launched from the Air Force Western Test Range (AFWTR). Debris objects in space refer to the collection of defunct objects orbiting the Earth. Examples of debris include non-operational satellites, rocket bodies, and fragments generated from explosions, collisions, or faulty payload assembly.

Loading next visibility...
Identifier
37891, 1966-040AW
Orbit
SSO
Country
Flag of USUS
Related business
Manufacturer
Unknown
Mission
Spacecraft
Bus & Motor
Unknown
Mass
Unknown
Launch date (UTC)
1966-05-15 (59 years ago)
Launch vehicle
Unknown
Launch site
Air Force Western Test Range (AFWTR)
Object type
Payload
Rocket body
Debris
Shape & HBR
Unknown shape, 0.1 m
Radar Cross Section
Small (<0.1 m²)

Expand to show TLE details & history
Last TLE update: 8 hours ago

TLE from 8 hours ago
0 NIMBUS 2 DEB
1 37891U 66040AW  25295.82596043  .00003902  00000-0  62681-2 0  9993
2 37891 100.5529 249.7043 0060394  98.7237 262.0741 13.48682098701895
Epoch: 2025-10-22T19:49Z
TLE epoch observation values (Epoch: 2025-10-22T19:49:22.981Z)
Latitude
0.00008°
Longitude
-79.13547°
Altitude
1,086.341 km
Speed
7.306 km/s
True Right ascension
16h 38m 49s
True Declination
0° 00' 00"
Sunlit
Object was in daylight at epoch
Visualization orbit readout
Latitude
Unknown
Longitude
Unknown
Altitude
Unknown
Speed
Unknown
Apparent Right ascension
Unknown
Apparent Declination
Unknown
Sunlit
N/A
Visualization observer readout
Local Sidereal Time
22:39:06
Azimuth
Unknown
Elevation
Unknown
Doppler factor
Unknown
Orbital elements
Apogee altitude
1,119.469 km
Perigee altitude
1,029.451 km
Semi-major axis
7,452.597 km
Eccentricity
0.00604
Inclination
100.5529°
RAAN
249.7043°
Arg. of periapsis
98.7237°
True anomaly
261.38938°
Mean anomaly
262.0741°
Eccentric anomaly
261.73166°
Mean motion
3.37351 °/min
Orbital period
106.71 mins
BSTAR
0.0062681
Loading maneuver chart data...
Computing Atmospheric mass density...
Loading historical data...
Loading historical data...
Loading historical data...
Loading historical data...
Loading historical data...
Loading historical data...
Loading historical data...

Documentation

Showing up to 5 results
|